Retour au catalogue

OPS 3367 A

ActifNavigationSSO
NORAD 734·PAYLOAD·🇺🇸 United States

Lancé Jan 19, 1964 depuis Vandenberg Space Force Base

Loading…

Prochains Passages (prochaines 24 heures)

TLE

FraisSource: Space-Track

Époque: Sep 14, 2026, 06:15 UTC

1 00734U 64002B   26257.26062600  .00000059  00000-0  41481-4 0  9996
2 00734  98.9804 190.1607 0013455 289.9099  70.0632 14.29719916261491

Suivez OPS 3367 A en temps réel avec AllMySat

Download on the App Store